This demonstration page uses our WeatherBlox Daily Observations layout. Learn more.

Left ArrowRight Arrow

41.86663, -103.66717

Hourly Observations for September 20, 2015

Temp ( °F °C ) Dew Point ( °F °C ) Humidity (%) Winds ( mph kmh ) Pressure ( in mb ) Visibility ( mi km ) Precip ( " mm )
12:53 am 00:53 Clear 47 8.3 42 5.6 83 83 NNW 5 7 29.91 1013 10 16 N/A
1:53 am 01:53 Clear 48 8.9 42 5.6 80 80 NNW 9 15 29.91 1013 10 16 N/A
2:53 am 02:53 Clear 45 7.2 40 4.4 83 83 NW 6 9 29.92 1013 10 16 N/A
3:53 am 03:53 Clear 46 7.8 39 3.9 77 77 NW 7 11 29.92 1013 10 16 N/A
4:53 am 04:53 Clear 44 6.7 39 3.9 83 83 undefined N/A 29.94 1014 10 16 N/A
5:53 am 05:53 Clear 43 6.1 37 2.8 80 80 W 6 9 29.96 1014 10 16 N/A
6:53 am 06:53 Sunny 44 6.7 35 1.7 71 71 NW 7 11 29.99 1016 10 16 N/A
7:53 am 07:53 Sunny 50 10 37 2.8 61 61 NW 7 11 30.01 1016 10 16 N/A
8:53 am 08:53 Sunny 53 11.7 37 2.8 55 55 WNW 9 15 30.01 1016 10 16 N/A
9:53 am 09:53 Sunny 62 16.7 36 2.2 38 38 WNW 9 15 30.01 1016 10 16 N/A
10:53 am 10:53 Sunny 68 20 36 2.2 31 31 WNW 10 17 29.99 1016 10 16 N/A
11:53 am 11:53 Sunny 74 23.3 35 1.7 24 24 WNW 10 17 29.97 1015 10 16 N/A
12:53 pm 12:53 Sunny 76 24.4 34 1.1 22 22 WNW 8 13 29.96 1015 10 16 N/A
1:53 pm 13:53 Sunny 79 26.1 35 1.7 20 20 W 7 11 29.93 1013 10 16 N/A
2:53 pm 14:53 Sunny 80 26.7 36 2.2 20 20 WNW 6 9 29.91 1013 10 16 N/A
3:53 pm 15:53 Sunny 81 27.2 34 1.1 18 18 NW 6 9 29.89 1012 10 16 N/A
4:53 pm 16:53 Sunny 82 27.8 31 -0.6 16 16 N N/A 29.88 1012 10 16 N/A
5:53 pm 17:53 Sunny 81 27.2 36 2.2 20 20 N N/A 29.88 1012 10 16 N/A
6:53 pm 18:53 Sunny 73 22.8 40 4.4 30 30 SE 6 9 29.89 1012 10 16 N/A
7:53 pm 19:53 Clear 61 16.1 47 8.3 60 60 E 5 7 29.91 1013 10 16 N/A
8:53 pm 20:53 Clear 59 15 46 7.8 62 62 ESE 5 7 29.92 1013 10 16 N/A
9:53 pm 21:53 Clear 56 13.3 45 7.2 67 67 SE 5 7 29.91 1013 10 16 N/A
10:53 pm 22:53 Clear 54 12.2 43 6.1 67 67 E 8 13 29.89 1012 10 16 N/A
11:53 pm 23:53 Clear 53 11.7 42 5.6 66 66 E 6 9 29.88 1012 10 16 N/A

Powered by AerisWeather